File timestamp: Mon Aug 22 01:00:00 2016, Internal temp: 18.157958984375
1471827601, 0.001394696184434, -0.0129618225619197, 0.0113144339993596, 33652, 32513, 23197, -27.6988620758057
1471827601, 0.0211327187716961, -0.013218492269516, 0.0115330955013633, 33628, 32513, 23215, NaN
1471827602.006, 0.0482094809412956, -0.0129185868427157, 0.0116457203403115, 33639, 32507, 23197, NaN
1471827603.006, 0.0826136544346809, -0.0129941087216139, 0.0123748639598489, 33632, 32518, 23208, NaN
1471827604.006, 0.122170828282833, -0.0132684158161283, 0.0116413226351142, 33640, 32507, 23191, NaN
1471827605.006, 0.164780721068382, -0.0129328323528171, 0.0110540241003036, 33646, 32523, 23191, NaN
1471827606.006, 0.117207750678062, -0.0130768157541752, 0.0107607897371054, 33642, 32514, 23213, NaN
1471827607.006, 0.0751754269003868, -0.0136055443435907, 0.0109741473570466, 33640, 32520, 23203, NaN
1471827608.006, 0.0395890437066555, -0.0141505021601915, 0.0114671615883708, 33643, 32514, 23187, NaN
1471827609.006, 0.00990817788988352, -0.0153745021671057, 0.010699356906116, 33640, 32516, 23190, NaN
1471827610.006, -0.0143950870260596, -0.0149919195100665, 0.011072195135057, 33643, 32522, 23195, NaN
1471827611.006, -0.0338340848684311, -0.0155986491590738, 0.0107357781380415, 33646, 32522, 23202, NaN
1471827612.006, -0.0489054620265961, -0.0150450821965933, 0.0103525370359421, 33633, 32516, 23201, NaN
1471827613.006, -0.0600871033966541, -0.0149478018283844, 0.0103482306003571, 33641, 32522, 23194, NaN
1471827614.006, -0.0678362101316452, -0.0154608599841595, 0.0105184772983193, 33643, 32527, 23200, NaN
1471827615.006, -0.0725875422358513, -0.0152949765324593, 0.0109066544100642, 33630, 32518, 23194, NaN
1471827616.006, -0.0747519135475159, -0.0158759597688913, 0.0108018694445491, 33635, 32518, 23206, NaN
1471827617.006, -0.0747149363160133, -0.0167620815336704, 0.0122473323717713, 33642, 32517, 23206, NaN
1471827618.006, -0.0728360638022423, -0.0169252157211304, 0.0123357875272632, 33641, 32523, 23198, NaN
1471827619.006, -0.0694479197263718, -0.0168848633766174, 0.0123524889349937, 33642, 32514, 23202, NaN
1471827620.006, -0.0648559033870697, -0.0157760232686996, 0.0116308499127626, 33634, 32515, 23210, NaN
1471827621.006, -0.0593380965292454, -0.0146698923781514, 0.0119215426966548, 33632, 32514, 23195, NaN
1471827622.006, -0.0531454607844353, -0.0148997521027923, 0.0122702587395906, 33646, 32520, 23205, NaN
1471827623.014, -0.0465022511780262, -0.014574633911252, 0.0119184106588364, 33632, 32511, 23210, NaN
1471827624.014, -0.0396066792309284, -0.0141198290511966, 0.0120855513960123, 33642, 32511, 23196, NaN
1471827625.014, -0.0326317995786667, -0.0136226424947381, 0.0121606905013323, 33632, 32517, 23203, NaN
1471827625.014, -0.0257265493273735, -0.0130559103563428, 0.0127117754891515, 33639, 32524, 23205, NaN
1471827626.022, -0.0190169773995876, -0.0134518351405859, 0.0135962553322315, 33642, 32508, 23193, NaN
1471827627.022, -0.0126075744628906, -0.0138092385604978, 0.0143913021311164, 33650, 32527, 23202, NaN
1471827628.022, -0.0065827164798975, -0.0139380460605025, 0.0150862615555525, 33625, 32507, 23211, NaN
1471827629.022, -0.00100818474311382, -0.0141053674742579, 0.0151994815096259, 33637, 32507, 23204, NaN
1471827629.022, 0.00406726682558656, -0.0137671371921897, 0.0144499503076077, 33645, 32520, 23199, NaN
1471827630.028, 0.00861032027751207, -0.0133841726928949, 0.0135314911603928, 33624, 32526, 23206, NaN
1471827631.028, 0.012601493857801, -0.0140962330624461, 0.0132757481187582, 33630, 32509, 23202, NaN
1471827632.028, 0.0160335581749678, -0.0136416153982282, 0.0132208401337266, 33631, 32513, 23192, NaN
1471827633.028, 0.018909988924861, -0.0134748592972755, 0.0130760204046965, 33640, 32512, 23208, NaN
1471827633.028, 0.0212434679269791, -0.0130512043833733, 0.0133450226858258, 33631, 32519, 23212, NaN
1471827634.032, 0.0229785777628422, -0.0139135206118226, 0.0132454540580511, 33636, 32504, 23193, NaN
1471827635.032, 0.0215692911297083, -0.0128282010555267, 0.013457216322422, 33637, 32517, 23204, NaN
1471827636.032, 0.0165276471525431, -0.0124751320108771, 0.0133167318999767, 33636, 32519, 23199, NaN
1471827637.032, 0.00931088160723448, -0.0119591392576694, 0.0134367868304253, 33642, 32517, 23193, NaN
1471827637.032, 0.00102248461917043, -0.0118059935048223, 0.0135447392240167, 33648, 32530, 23205, NaN
1471827638.034, -0.00613917177543044, -0.0114560080692172, 0.013650281354785, 33624, 32504, 23206, NaN
1471827639.014, -0.0121920853853226, -0.011876767501235, 0.0131435822695494, 33632, 32512, 23211, NaN
1471827640.014, -0.017055120319128, -0.011566985398531, 0.0117307705804706, 33629, 32531, 23209, NaN
1471827641.014, -0.0214213468134403, -0.0118672773241997, 0.0117940586060286, 33629, 32521, 23211, NaN
1471827642.014, -0.0242415443062782, -0.0124783599749207, 0.0119991041719913, 33639, 32520, 23207, NaN
1471827643.014, -0.0260683614760637, -0.0119253396987915, 0.0118749495595694, 33633, 32506, 23203, NaN
1471827644.014, -0.0265941247344017, -0.0122512178495526, 0.0125047974288464, 33643, 32516, 23206, NaN
1471827645.014, -0.0250834729522467, -0.0114004211500287, 0.012193133123219, 33627, 32515, 23214, NaN
1471827646.014, -0.0209254585206509, -0.0112678492441773, 0.012053357437253, 33634, 32512, 23204, NaN
1471827647.014, -0.0147512340918183, -0.0109545420855284, 0.0120364520698786, 33646, 32516, 23198, NaN
1471827648.024, -0.00735080474987626, -0.0112145002931356, 0.0122502660378814, 33642, 32520, 23206, NaN
1471827649.024, -8.7265063484665e-05, -0.0109852030873299, 0.0123618151992559, 33648, 32506, 23204, NaN
1471827650.024, 0.00772622739896178, -0.0109219290316105, 0.0135099096223712, 33640, 32520, 23201, NaN
1471827650.024, 0.0155420647934079, -0.0112820714712143, 0.0135198850184679, 33647, 32524, 23209, NaN
1471827651.032, 0.0238366033881903, -0.0114846816286445, 0.0130111258476973, 33637, 32515, 23212, NaN
1471827652.032, 0.031438734382391, -0.0113900303840637, 0.0135398153215647, 33636, 32515, 23200, NaN
1471827653.032, 0.0385040603578091, -0.0112003898248076, 0.013526207767427, 33628, 32511, 23204, NaN
1471827654.032, 0.0456057377159595, -0.0110436324030161, 0.0123607199639082, 33630, 32519, 23205, NaN
1471827654.032, 0.0518314801156521, -0.0106001989915967, 0.011767789721489, 33644, 32516, 23209, -27.4644527435303
1471827655.038, 0.0563076585531235, -0.00973891839385033, 0.012051017023623, 33636, 32517, 23215, NaN
1471827656.038, 0.059387493878603, -0.00979713536798954, 0.0122249433770776, 33647, 32524, 23202, NaN
1471827657.038, 0.0618503615260124, -0.00855065230280161, 0.011263458058238, 33644, 32512, 23211, NaN
1471827658.038, 0.0629847794771194, -0.00784112978726625, 0.0120552144944668, 33651, 32502, 23193, NaN
1471827659.038, 0.0637273341417313, -0.00737115042284131, 0.0116040436550975, 33629, 32515, 23212, NaN
1471827660.038, 0.0621252804994583, -0.00775877386331558, 0.0115294428542256, 33630, 32510, 23202, NaN
1471827661.018, 0.0584312155842781, -0.00807131454348564, 0.0108208423480392, 33623, 32518, 23205, NaN
1471827662.018, 0.0530139915645123, -0.00794758647680283, 0.0106852790340781, 33633, 32521, 23204, NaN
1471827663.018, 0.0472411997616291, -0.00800047814846039, 0.0104660978540778, 33629, 32508, 23206, NaN
1471827664.018, 0.0442767292261124, -0.00767814135178924, 0.0097931269556284, 33646, 32510, 23191, NaN
1471827665.018, 0.0482461713254452, -0.00708861229941249, 0.00952721945941448, 33641, 32510, 23199, NaN
1471827666.018, 0.0623710677027702, -0.00694981729611754, 0.00966911762952805, 33637, 32531, 23206, NaN
1471827667.018, 0.0865279361605644, -0.00689076818525791, 0.0100240744650364, 33632, 32525, 23205, NaN
1471827668.018, 0.1192686855793, -0.00726905791088939, 0.00994960777461529, 33626, 32507, 23209, NaN
1471827669.018, 0.158032730221748, -0.00768796121701598, 0.00965091306716204, 33645, 32530, 23208, NaN
1471827670.018, 0.182226672768593, -0.00835765060037374, 0.00921631790697575, 33635, 32517, 23209, NaN
1471827671.018, 0.119445569813251, -0.00894745346158743, 0.00993845518678427, 33648, 32517, 23196, NaN
1471827672.018, 0.0654613524675369, -0.00906119029968977, 0.00923826266080141, 33617, 32526, 23208, NaN
1471827673.018, 0.0196628924459219, -0.0094161331653595, 0.00954818073660135, 33643, 32515, 23202, NaN
1471827674.018, -0.0185661278665066, -0.0100433388724923, 0.00992201454937458, 33633, 32503, 23202, NaN
1471827675.026, -0.0498426407575607, -0.00978815741837025, 0.00928365904837847, 33635, 32515, 23204, NaN
1471827676.026, -0.0747795626521111, -0.0102554839104414, 0.00961507670581341, 33634, 32520, 23206, NaN
1471827677.026, -0.0939812213182449, -0.0115787032991648, 0.00956003833562136, 33626, 32520, 23203, NaN
1471827678.026, -0.10803896933794, -0.0123537294566631, 0.00928485486656427, 33642, 32513, 23196, NaN
1471827678.026, -0.117527112364769, -0.0126577336341143, 0.010109624825418, 33629, 32517, 23208, NaN
1471827679.034, -0.122999161481857, -0.0138048818334937, 0.010229148901999, 33637, 32507, 23202, NaN
1471827680.034, -0.124984540045261, -0.0139166638255119, 0.00952142104506493, 33635, 32519, 23203, NaN
1471827681.034, -0.123985730111599, -0.014533257111907, 0.0104173757135868, 33634, 32503, 23191, NaN
1471827682.034, -0.120475918054581, -0.0148934470489621, 0.0108233205974102, 33631, 32513, 23206, NaN
1471827682.034, -0.114897102117538, -0.0145919024944305, 0.0105039365589619, 33639, 32507, 23205, NaN
1471827683.04, -0.107658721506596, -0.0142090599983931, 0.011103923432529, 33630, 32513, 23209, NaN
1471827684.04, -0.0991367101669312, -0.0140672856941819, 0.0109754735603929, 33635, 32511, 23202, NaN
1471827685.04, -0.0896730571985245, -0.0139414323493838, 0.0112340059131384, 33641, 32518, 23200, NaN
1471827686.04, -0.0795757547020912, -0.0136817330494523, 0.0107799004763365, 33640, 32521, 23196, NaN
1471827687.04, -0.0691191330552101, -0.013689860701561, 0.0108987968415022, 33634, 32523, 23198, NaN
1471827688.04, -0.0585445612668991, -0.01278140489012, 0.0102295354008675, 33634, 32518, 23200, NaN
1471827689.04, -0.0480614677071571, -0.0124074555933475, 0.010094634257257, 33649, 32514, 23200, NaN
1471827690.04, -0.0378486104309559, -0.0125841479748487, 0.00958513375371695, 33632, 32528, 23208, NaN
1471827691.04, -0.0280555952340364, -0.0120053365826607, 0.0102178016677499, 33630, 32517, 23200, NaN
1471827692.04, -0.0188045725226402, -0.0118965385481715, 0.0103022065013647, 33640, 32521, 23199, NaN
1471827693.04, -0.0101921036839485, -0.0127009293064475, 0.0107225896790624, 33619, 32515, 23219, NaN
1471827694.04, -0.00229110661894083, -0.0132520440965891, 0.010270107537508, 33638, 32510, 23207, NaN
1471827695.04, 0.00484709674492478, -0.013218211941421, 0.0103770587593317, 33622, 32503, 23196, NaN
1471827696.04, 0.0111907050013542, -0.0134723382070661, 0.0104796783998609, 33646, 32522, 23204, NaN
1471827697.04, 0.0167253464460373, -0.0129238860681653, 0.0107528604567051, 33633, 32518, 23204, NaN
1471827698.04, 0.0214520134031773, -0.0142506500706077, 0.0111331222578883, 33637, 32510, 23202, NaN
1471827699.04, 0.0253850296139717, -0.0146099664270878, 0.011193061247468, 33640, 32517, 23194, NaN
1471827700.04, 0.0278176683932543, -0.0149778965860605, 0.0109947249293327, 33632, 32525, 23199, NaN
1471827701.04, 0.0255756545811892, -0.0156785864382982, 0.0108923744410276, 33634, 32514, 23195, NaN
1471827702.048, 0.0193501394242048, -0.0163852609694004, 0.0104097463190556, 33631, 32516, 23221, NaN
1471827703.048, 0.00972540955990553, -0.0178719386458397, 0.00947024300694466, 33641, 32521, 23210, NaN
1471827704.048, 4.27856939495541e-05, -0.0188164003193378, 0.00997024960815907, 33638, 32517, 23192, NaN
1471827705.048, -0.00799261964857578, -0.0190105922520161, 0.0103070568293333, 33633, 32510, 23194, NaN
1471827705.048, -0.0146003412082791, -0.0195532832294703, 0.0102955931797624, 33634, 32506, 23192, NaN
1471827706.056, -0.0191314145922661, -0.0195876508951187, 0.0105335544794798, 33632, 32515, 23205, NaN
1471827707.056, -0.0218671746551991, -0.0194444693624973, 0.0107733411714435, 33631, 32509, 23197, NaN
1471827708.056, -0.0240680947899818, -0.0203091762959957, 0.010467522777617, 33646, 32511, 23213, NaN
1471827709.056, -0.0232926867902279, -0.0211224462836981, 0.0113993911072612, 33646, 32523, 23201, NaN
1471827709.056, -0.020520456135273, -0.0207426678389311, 0.0117767425253987, 33626, 32517, 23216, NaN
1471827710.062, -0.0164503399282694, -0.0202951747924089, 0.0120432367548347, 33636, 32524, 23207, -32.8839416503906
1471827711.062, -0.0119373323395848, -0.0204151906073093, 0.011899528093636, 33635, 32520, 23193, NaN
1471827712.062, -0.00501689687371254, -0.0205894075334072, 0.0120555832982063, 33629, 32537, 23208, NaN
1471827713.062, 0.00356003595516086, -0.02019427344203, 0.0120168356224895, 33643, 32512, 23201, NaN
1471827714.062, 0.0128586795181036, -0.0212190542370081, 0.0120178340002894, 33636, 32519, 23200, NaN
1471827715.062, 0.0214033257216215, -0.0214231386780739, 0.0120331896468997, 33637, 32504, 23198, NaN
1471827716.062, 0.0288278050720692, -0.0212837103754282, 0.011840708553791, 33643, 32525, 23202, NaN
1471827717.062, 0.0354142338037491, -0.0213190913200378, 0.0116227846592665, 33642, 32520, 23207, NaN
1471827718.062, 0.0416526719927788, -0.0213894415646791, 0.0119766425341368, 33632, 32513, 23190, NaN
1471827719.062, 0.0463074818253517, -0.0220706108957529, 0.0118290288373828, 33645, 32515, 23190, NaN
1471827720.062, 0.0493735335767269, -0.0228391084820032, 0.0117166507989168, 33637, 32521, 23207, NaN
1471827721.062, 0.0524019822478294, -0.0231877788901329, 0.0109960585832596, 33639, 32521, 23208, NaN
1471827722.062, 0.0554019697010517, -0.0233231913298368, 0.0104716420173645, 33630, 32516, 23211, NaN
1471827723.062, 0.057359553873539, -0.0238413084298372, 0.00954706687480211, 33641, 32514, 23198, NaN
1471827724.062, 0.0588864088058472, -0.0234220642596483, 0.00963270105421543, 33642, 32520, 23200, NaN
1471827725.062, 0.0600414723157883, -0.023115374147892, 0.00911169499158859, 33641, 32523, 23195, NaN
1471827726.062, 0.0609887503087521, -0.0219869334250689, 0.0093258498236537, 33645, 32511, 23209, NaN
1471827727.062, 0.0604603327810764, -0.0221764855086803, 0.0093477126210928, 33641, 32510, 23204, NaN
1471827728.062, 0.0590628236532211, -0.0216739177703857, 0.00917044375091791, 33631, 32510, 23205, NaN
1471827729.062, 0.0569167323410511, -0.0217459686100483, 0.00895125698298216, 33636, 32515, 23206, NaN
1471827730.07, 0.054638609290123, -0.020886117592454, 0.0091237174347043, 33640, 32512, 23206, NaN
1471827731.07, 0.0523863919079304, -0.021182470023632, 0.00965103041380644, 33651, 32513, 23197, NaN
1471827732.07, 0.0491212345659733, -0.0216850787401199, 0.0100828791037202, 33623, 32519, 23207, NaN
1471827733.07, 0.045082651078701, -0.0221152231097221, 0.00958342850208282, 33635, 32507, 23204, NaN
1471827733.07, 0.0405522063374519, -0.0217078812420368, 0.00918880477547646, 33627, 32520, 23207, NaN
1471827734.078, 0.0356131419539452, -0.0213244389742613, 0.00953301321715117, 33639, 32517, 23207, NaN
1471827735.078, 0.0300145223736763, -0.0215825960040092, 0.00911282747983932, 33645, 32527, 23206, NaN
1471827736.078, 0.0241910330951214, -0.0217589307576418, 0.00923276413232088, 33636, 32511, 23191, NaN
1471827737.078, 0.0180760324001312, -0.0210480391979218, 0.00820481404662132, 33641, 32521, 23199, NaN
1471827737.078, 0.0112684294581413, -0.0211793221533298, 0.00830867048352957, 33644, 32514, 23195, NaN
1471827738.084, 0.00439025508239865, -0.0215332247316837, 0.00868153758347034, 33631, 32527, 23206, NaN
1471827739.084, -0.00239991769194603, -0.0219452381134033, 0.00897424947470427, 33637, 32528, 23211, NaN
1471827740.084, -0.00892972107976675, -0.0217567645013332, 0.00803232844918966, 33651, 32516, 23196, NaN
1471827741.084, -0.0149952452629805, -0.0216671302914619, 0.00755015015602112, 33636, 32516, 23198, NaN
1471827741.084, -0.0209021233022213, -0.0209164768457413, 0.00710846576839685, 33632, 32512, 23214, NaN
1471827742.088, -0.0262125544250011, -0.0209749154746532, 0.00748434336856008, 33635, 32509, 23211, NaN
1471827743.088, -0.0311976186931133, -0.020562157034874, 0.00765427108854055, 33637, 32516, 23194, NaN
1471827744.088, -0.0353962928056717, -0.0204425361007452, 0.00790230557322502, 33642, 32518, 23211, NaN
1471827745.088, -0.0390117093920708, -0.0200003888458014, 0.00858402531594038, 33634, 32518, 23201, NaN
1471827746.088, -0.0419053323566914, -0.0197859611362219, 0.00856690760701895, 33642, 32514, 23201, NaN
1471827747.088, -0.0440385304391384, -0.0210275910794735, 0.0086543345823884, 33630, 32522, 23209, NaN
1471827748.088, -0.0453884936869144, -0.0208386294543743, 0.00769954640418291, 33637, 32506, 23208, NaN
1471827749.088, -0.0461275167763233, -0.0210186243057251, 0.00738837104290724, 33638, 32499, 23196, NaN
1471827750.088, -0.046108316630125, -0.0209439378231764, 0.00740270782262087, 33632, 32519, 23201, NaN
1471827751.088, -0.0454812571406364, -0.0213027950376272, 0.00831557530909777, 33632, 32521, 23195, NaN
1471827752.088, -0.0442917533218861, -0.020963167771697, 0.00829879567027092, 33644, 32512, 23198, NaN
1471827753.088, -0.0426422581076622, -0.0210816171020269, 0.00821098871529102, 33635, 32512, 23206, NaN
1471827754.088, -0.0402853302657604, -0.0211811847984791, 0.00785677973181009, 33634, 32519, 23210, NaN
1471827755.088, -0.0377391017973423, -0.0209161713719368, 0.00828889105468988, 33648, 32529, 23202, NaN
1471827756.096, -0.0348658226430416, -0.0210157241672277, 0.00786751694977283, 33638, 32525, 23208, NaN
1471827757.096, -0.03171581402421, -0.0216355659067631, 0.00811518076807261, 33641, 32520, 23192, NaN
1471827758.096, -0.0282591730356216, -0.0215882025659084, 0.00767847849056125, 33626, 32514, 23210, NaN
1471827759.096, -0.0248162113130093, -0.0223701726645231, 0.00735279778018594, 33629, 32519, 23208, NaN
1471827759.096, -0.0210691839456558, -0.0230720471590757, 0.00799473281949759, 33634, 32516, 23205, NaN
1471827760.104, -0.0171256978064775, -0.0231177769601345, 0.00864966120570898, 33643, 32535, 23192, NaN
1471827761.104, -0.01363779976964, -0.0228306967765093, 0.00892674829810858, 33643, 32515, 23204, NaN
1471827762.104, -0.0101279430091381, -0.0229742340743542, 0.00860205665230751, 33638, 32514, 23204, NaN
1471827763.104, -0.00680176727473736, -0.022685818374157, 0.00860703457146883, 33628, 32519, 23206, NaN
1471827764.104, -0.00330439629033208, -0.0223185401409864, 0.00877498090267181, 33649, 32518, 23208, NaN
1471827765.104, -9.35907737584785e-05, -0.0225855838507414, 0.00904195848852396, 33648, 32512, 23199, NaN
1471827766.104, 0.00251102191396058, -0.0239155720919371, 0.00906046386808157, 33640, 32512, 23206, -34.6035690307617
1471827767.104, 0.00499220844358206, -0.0237982124090195, 0.00853857584297657, 33651, 32516, 23203, NaN
1471827768.104, 0.00724607612937689, -0.0234071593731642, 0.0092764338478446, 33645, 32513, 23211, NaN
1471827769.104, 0.00950691755861044, -0.0235395431518555, 0.00934290327131748, 33630, 32520, 23210, NaN
1471827770.104, 0.0112685384228826, -0.0230219606310129, 0.00961354654282331, 33634, 32509, 23198, NaN
1471827771.104, 0.0132358158007264, -0.0224931091070175, 0.0099654346704483, 33627, 32501, 23209, NaN
1471827772.104, 0.0142400935292244, -0.0219838246703148, 0.0107514783740044, 33625, 32515, 23219, NaN
1471827773.104, 0.0150082763284445, -0.02250368706882, 0.0116583714261651, 33633, 32512, 23213, NaN
1471827774.104, 0.0153241390362382, -0.0231029950082302, 0.0112617406994104, 33637, 32515, 23201, NaN
1471827775.104, 0.0154999755322933, -0.0229109302163124, 0.0120255183428526, 33634, 32502, 23208, NaN
1471827776.104, 0.0157304983586073, -0.0234785079956055, 0.0121592674404383, 33640, 32520, 23204, NaN
1471827777.104, 0.0158034190535545, -0.0230220109224319, 0.0119992503896356, 33633, 32522, 23194, NaN
1471827778.104, 0.0169005766510963, -0.0221420768648386, 0.0126251531764865, 33620, 32505, 23217, NaN
1471827779.104, 0.0228299703449011, -0.0220784470438957, 0.0130858039483428, 33647, 32514, 23187, NaN
1471827780.104, 0.0355140715837479, -0.0227881446480751, 0.0130106974393129, 33634, 32526, 23205, NaN
1471827781.104, 0.0560726672410965, -0.0224483944475651, 0.0134167047217488, 33642, 32506, 23204, NaN
1471827782.104, 0.0834174677729607, -0.0229040049016476, 0.0137726785615087, 33636, 32519, 23198, NaN
1471827783.104, 0.115396589040756, -0.0223541129380465, 0.014453531242907, 33644, 32512, 23194, NaN
1471827784.104, 0.150178506970406, -0.0216156523674726, 0.0136226899921894, 33641, 32522, 23201, NaN
1471827785.114, 0.185629338026047, -0.0208587050437927, 0.0139490868896246, 33632, 32515, 23207, NaN
1471827786.114, 0.134133219718933, -0.0205087624490261, 0.0142956161871552, 33650, 32510, 23197, NaN
1471827787.114, 0.0823630169034004, -0.0195385664701462, 0.0139179993420839, 33636, 32519, 23198, NaN
1471827788.114, 0.0384634882211685, -0.018853971734643, 0.0135532952845097, 33642, 32526, 23197, NaN
1471827788.114, 0.00180414877831936, -0.0185798164457083, 0.0131207956001163, 33636, 32511, 23199, NaN
1471827789.122, -0.028236823156476, -0.0184720233082771, 0.0132634844630957, 33633, 32510, 23204, NaN
1471827790.122, -0.052269272506237, -0.0194253195077181, 0.013758746907115, 33633, 32519, 23212, NaN
1471827791.122, -0.0708877816796303, -0.019631477072835, 0.0136686377227306, 33628, 32515, 23209, NaN
1471827792.122, -0.0846684724092484, -0.020463339984417, 0.0131083782762289, 33635, 32513, 23215, NaN
1471827792.122, -0.0941660031676292, -0.0199796296656132, 0.0127773229032755, 33626, 32512, 23218, NaN
1471827793.128, -0.0999108552932739, -0.0196059588342905, 0.0122718904167414, 33635, 32523, 23199, NaN
1471827794.128, -0.102406956255436, -0.0193091332912445, 0.0124792512506247, 33631, 32500, 23204, NaN
1471827795.128, -0.102129630744457, -0.0193986799567938, 0.0121870683506131, 33625, 32518, 23206, NaN
1471827796.128, -0.0995239764451981, -0.0194483436644077, 0.0121340854093432, 33641, 32505, 23205, NaN
1471827796.128, -0.0950036495923996, -0.019394701346755, 0.0131703540682793, 33630, 32526, 23207, NaN
1471827797.132, -0.0889499932527542, -0.0185585357248783, 0.0129050770774484, 33655, 32516, 23196, NaN
1471827798.132, -0.0817116424441338, -0.018350662663579, 0.0128131443634629, 33640, 32520, 23205, NaN
1471827799.132, -0.0736044198274612, -0.0179254673421383, 0.0130800670012832, 33637, 32516, 23199, NaN
1471827800.132, -0.0649116039276123, -0.0180810559540987, 0.0132444212213159, 33630, 32515, 23197, NaN
1471827800.134, -0.0558845810592175, -0.0180957149714231, 0.0134500600397587, 33639, 32510, 23209, NaN
1471827801.136, -0.0467436760663986, -0.0183805804699659, 0.0138187883421779, 33640, 32518, 23201, NaN
1471827802.136, -0.0376793332397938, -0.0179070290178061, 0.0133593920618296, 33637, 32508, 23205, NaN
1471827803.136, -0.0288534723222256, -0.0179699752479792, 0.0143457185477018, 33648, 32516, 23204, NaN
1471827804.136, -0.0204010214656591, -0.0176743734627962, 0.0143159748986363, 33649, 32513, 23203, NaN
1471827805.136, -0.0124316401779652, -0.0175725556910038, 0.0141256507486105, 33634, 32509, 23208, NaN
1471827806.136, -0.00503150559961796, -0.0178506225347519, 0.0138895055279136, 33633, 32513, 23204, NaN
1471827807.136, 0.00173477828502655, -0.0178150907158852, 0.014536096714437, 33633, 32508, 23196, NaN
1471827808.136, 0.0078222481533885, -0.0185800604522228, 0.013492438942194, 33626, 32513, 23211, NaN
1471827809.136, 0.0132036181166768, -0.0178048629313707, 0.0128643438220024, 33628, 32509, 23217, NaN
1471827810.146, 0.0178673230111599, -0.0181942600756884, 0.0132624562829733, 33622, 32510, 23209, NaN
1471827811.146, 0.0218155924230814, -0.0177732687443495, 0.0134324077516794, 33646, 32530, 23200, NaN
1471827812.146, 0.0250021200627089, -0.0179599970579147, 0.0136501612141728, 33638, 32517, 23202, NaN
1471827813.146, 0.0254106353968382, -0.018020136281848, 0.012777341529727, 33641, 32515, 23191, NaN